BEIDOU-3 G2 (45344 NORAD) Tracking and Keplerian Element Data

This shows tracking and keplerian element data for the satellite.

Feedback or suggestion? Click here.




ElementValue
Catalog45344
NameBEIDOU-3 G2
Epoch Orbit54
Epoch Day93.86251859
Epoch Year2020
RAAN327.1444
Inclination3.0816
Eccentricity0.0002485
Argument of Perigee45.9185
Mean Anonmoly209.1193
Mean Motion1.00272551
Decay Rate-1.51E-06
L11 45344U 20017A 20093.86251859 -.00000151 00000-0 00000-0 0 9996
L22 45344 3.0816 327.1444 0002485 45.9185 209.1193 1.00272551 543

Live tracking and technical data element details for BEIDOU-3 G2 (NORAD 45344). BEIDOU-3 G2 can be tracked NOW for your location showing map with azimuth and elevation plus other details from your city location.

Track the satellite on the map from your city or location and see movement details for azimuth, elevation, latitude, longitude, range, height, and movement on the map or in text.







IsCatalogInMostPopularTable: catalog: 45344, numindb: 6
Update: records affected: 1



GetName: 45344 BEIDOU-3 G2

Hit Count: updated at: Mon, 06 Apr 2020 11:51:31 GMT